Find STARLINK-37955

NORAD ID: 799501047 Int'l Des: 2026-146Z Constellation: starlink operational

当前视图

正在加载3D地球...

About STARLINK-37955

STARLINK-37955 (NORAD 799501047) is a starlink constellation satellite launched Jun 12, 2026

关于 STARLINK-37955

正在加载描述...

即将过境

Passes for default location (London). Set your location on the main map for personalized predictions.

高度历史

Loading altitude history...

两行轨道根数

1 99999C 2026146Z 26176.32895832 .00730510 00000-0 111790-3 0 1763
2 99999 97.2856 21.9845 0011250 276.4369 184.6631 16.03882291 19
Epoch: Jun 25, 2026 • Age: 10 hours